sat.trackr.live / text

‹ back to catalog

STARLINK-4445

NORAD 53474 · 2022-099K

PAYLOAD ACTIVE UNKNOWN

§ Identity

Operator
Country
US
Launch date
2022-08-12
Launch site
AFWTR
Launch vehicle
Mass (kg)
RCS (m²)

Purposes: comms

External: N2YO · Heavens-Above · Gunter

§ Orbital elements

Epoch: 2026-05-24T21:37:58.266912Z

Period
95.64 min
Inclination
97.4492°
Eccentricity
0.0001330
Mean motion
15.05645662 rev/d
Perigee alt
548.6 km
Apogee alt
550.4 km
Semi-major
6,927.7 km
B*
2.6776e-5
RAAN
264.8825°
Arg perigee
172.3806°
Mean anomaly
187.7442°
Rev number
20,744

§ Raw data

STARLINK-44451 53474U 22099K   26144.90136883  .00000328  00000+0  26776-4 0  99942 53474  97.4492 264.8825 0001330 172.3806 187.7442 15.05645662207449

JSON: /api/v1/satellites/53474 · /tle

For live sub-satellite position, see the globe view (requires WebGL).

§ Visibility from observer

Set your observer location to see the next 7 days of passes ≥ 10°. The values pass through the URL so the page stays shareable.

No JS? Fill the form by hand. The geolocation button needs JavaScript.